Location: Indian Tree Observatory
(39.4030°N, 104.5929°W)
Time: 02:20:19
(UTC-06:00)

N. Korean satellite - Visible Passes

Search period start: 20 September 2018 00:00
Search period end: 30 September 2018 00:00
Orbit: 458 x 511 km, 97.2° (Epoch: 19 September)

Date Brightness Start Highest point End Pass type
(mag) Time Alt. Az. Time Alt. Az. Time Alt. Az.
22 Sep 10.1 19:42:18 10° WSW 19:43:45 12° W 19:45:14 10° WNW visible
25 Sep 10.3 06:20:28 10° ENE 06:22:21 13° E 06:24:13 10° ESE visible
26 Sep 10.0 19:37:54 10° SW 19:39:47 14° W 19:41:41 10° WNW visible
27 Sep 9.1 19:12:13 10° SSW 19:15:16 28° W 19:18:24 10° NW visible
29 Sep 10.5 06:16:53 10° ENE 06:18:23 12° E 06:19:52 10° ESE visible
